Flag for United Kingdom Weather past 2 weeks in Londonderry, Northern Ireland, United Kingdom

Now
63 °F

Scattered clouds.


Feels Like: 63 °F
Forecast: 51 / 64 °F
Wind: 6 mph from East

Location: Eglinton / Londonderry

Current Time: Jul 31, 2014 at 5:28:42 PM

Latest Report: Jul 31, 2014 at 4:50 PM


Visibility: N/A

Pressure: 29.74 "Hg

Humidity: 83%

Dew point: 57 °F

Location of LondonderryLocation

Historic Weather in Londonderry — Graph

°F

Londonderry temperature yesterday

Maximum temperature yesterday: 64 °F (at 12:20 PM)
Minimum temperature yesterday: 59 °F (at 5:50 AM)
Average temperature yesterday: 62 °F

Past Weeks' High & Low Weather Summary

 TemperatureHumidityPressure
High82 °F (Jul 25, 1:20 PM)100% (Jul 27, 4:20 PM)30.21 "Hg (Jul 27, 4:20 PM)
Low52 °F (Jul 17, 5:50 AM)34% (Jul 25, 12:50 PM)29.74 "Hg (Jul 19, 1:50 PM)
Average66 °F77%30.01 "Hg
* Reported Jul 16 4:20 PM — Jul 31 4:20 PM, Londonderry, Weather by CustomWeather, © 2014

Note: Actual official high and low records may vary slightly from our data, if they occured in-between our weather recording intervals... More about our weather records

Advertising

Londonderry weather history for previous 24 hours

 ConditionsComfort  
Time TempWeatherWind HumidityBarometerVisibility
4:20 PM
Jul 31
64 °FScattered clouds.2 mph78%29.74 "HgN/A
3:50 PM66 °FScattered clouds.2 mph78%29.74 "HgN/A
3:20 PM61 °FBroken clouds.5 mph88%29.77 "HgN/A
2:50 PM61 °FSprinkles. Partly sunny.14 mph88%29.77 "HgN/A
2:20 PM64 °FBroken clouds.8 mph88%29.74 "HgN/A
1:50 PM63 °FRain showers. Partly sunny.3 mph88%29.77 "Hg4 mi
1:20 PM61 °FRain showers. Partly sunny.5 mph94%29.77 "Hg4 mi
12:50 PM61 °FSprinkles. Broken clouds.6 mph88%29.80 "Hg4 mi
12:20 PM61 °FBroken clouds.9 mph88%29.80 "Hg4 mi
11:50 AM61 °FBroken clouds.5 mph88%29.80 "Hg4 mi
11:20 AM59 °FLight rain. Broken clouds.5 mph94%29.80 "Hg4 mi
10:50 AM59 °FRain showers. Partly sunny.7 mph88%29.83 "Hg4 mi
10:20 AM61 °FDrizzle. Broken clouds.9 mph83%29.83 "Hg5 mi
9:50 AM61 °FScattered clouds.10 mph83%29.83 "HgN/A
8:50 AM59 °FScattered clouds.9 mph88%29.83 "HgN/A
8:20 AM57 °FPartly sunny.10 mph94%29.83 "HgN/A
7:50 AM59 °FScattered showers. Partly sunny.9 mph88%29.83 "HgN/A
7:20 AM59 °FPartly sunny.8 mph88%29.83 "HgN/A
6:50 AM57 °FPartly sunny.7 mph94%29.83 "HgN/A
6:20 AM57 °FPassing clouds.7 mph94%29.83 "HgN/A
5:50 AM57 °FPassing clouds.9 mph88%29.83 "HgN/A
Weather by CustomWeather, © 2014

See weather overviewHow to use our weather pages